Wind_Speed
23 22 22 22 22 22 22 22 22 21 19 18 17 16 14 13 11 10 9 8 8 7 6 6 5 5 4 4 4 4 4 4 4 5 5 5 5 6 6 6 6 7 7
25 24 24 23 23 23 23 23 24 23 22 21 20 18 17 15 14 12 11 10 9 8 8 7 6 6 6 6 5 5 5 5 5 6 6 6 7 7 7 8 8 8 8
28 27 26 25 25 25 24 24 25 25 25 24 23 22 20 18 16 14 13 12 11 10 9 9 8 7 7 7 7 6 6 6 6 7 7 8 8 8 9 9 9 9 10
30 30 29 28 27 26 26 25 26 26 26 26 25 24 23 21 19 17 15 14 13 12 11 10 10 9 8 8 8 8 8 8 8 8 8 9 9 9 10 10 10 11 11
33 32 31 31 30 29 28 27 27 27 27 27 27 26 25 24 22 20 18 17 16 14 13 12 11 11 10 10 10 10 10 9 9 9 9 10 10 11 11 11 12 12 12
36 35 34 34 33 32 31 30 29 29 29 28 28 28 27 27 25 23 21 19 18 17 16 14 13 12 12 11 11 11 11 11 11 11 11 11 11 12 12 13 13 13 13
38 38 37 36 36 35 33 32 32 31 30 30 29 29 29 28 28 26 24 22 20 19 18 16 15 14 14 13 13 13 13 13 13 12 12 12 12 13 13 13 14 14 14
41 40 39 39 38 37 36 35 34 33 33 32 31 30 30 30 29 29 27 25 23 22 20 19 18 16 15 15 14 14 14 14 14 14 14 14 14 14 14 14 15 15 16
44 43 42 42 41 40 39 38 37 36 35 34 33 32 31 31 30 30 29 27 26 24 23 21 20 19 18 17 16 16 15 16 16 16 15 15 15 15 15 16 16 17 17
47 46 45 45 44 43 42 41 40 38 37 36 35 34 33 32 32 32 31 30 28 26 25 24 23 21 20 19 18 18 17 17 17 18 18 17 17 17 17 17 18 18 19
49 49 48 48 47 46 45 44 43 41 40 39 37 36 36 34 33 33 32 31 30 28 27 26 25 24 22 21 21 20 20 19 19 19 19 19 19 19 19 19 20 20 21
52 52 52 52 51 50 48 47 46 43 42 41 40 38 37 37 36 35 33 32 31 31 29 28 28 26 25 24 23 22 21 21 21 21 20 21 21 21 21 21 21 22 22
55 55 56 55 54 53 52 50 49 47 45 43 42 41 40 39 38 37 35 34 33 32 31 30 29 28 27 26 25 25 24 23 23 22 22 22 23 23 23 23 23 24 24
55 57 58 58 58 56 55 53 52 50 48 46 45 43 42 41 40 40 38 36 35 34 33 32 31 30 30 28 27 27 26 26 25 24 24 24 25 25 25 25 26 26 26
55 57 57 60 60 59 58 56 55 53 51 49 48 46 45 44 43 42 41 39 38 36 34 33 33 32 32 31 30 29 28 28 27 27 26 26 26 27 27 27 28 28 28
55 57 58 59 60 60 60 59 57 55 54 53 51 49 48 47 45 44 43 42 40 39 37 35 34 34 33 33 32 31 30 30 29 29 29 28 29 29 29 29 29 29 30
55 56 57 58 60 61 61 61 60 58 56 55 54 52 50 49 48 46 45 44 43 41 40 38 37 36 35 34 34 33 32 31 31 31 31 31 30 30 30 30 30 30 31
53 55 56 57 59 60 62 62 62 61 59 58 56 54 52 51 50 49 47 46 45 44 42 40 39 37 36 35 35 34 34 34 34 33 33 32 32 32 32 32 32 33 33
50 52 54 56 57 60 62 63 63 62 61 60 58 57 54 54 52 51 49 48 48 46 44 41 40 39 38 37 36 36 36 36 35 35 34 34 33 34 34 35 35 36 36
47 49 51 54 55 57 59 62 62 62 61 61 59 59 57 56 55 54 52 50 49 47 45 44 43 42 41 40 39 38 38 38 38 37 36 36 36 36 37 37 38 38 39
42 44 47 50 53 55 57 59 60 61 61 61 60 59 58 56 56 55 54 52 50 49 46 45 45 44 42 42 42 41 40 40 40 39 38 38 38 38 39 40 41 42 42
37 39 42 46 49 52 55 56 57 59 60 59 58 58 57 56 56 55 54 54 52 51 49 47 47 45 44 43 43 43 42 42 42 41 41 40 41 41 41 42 43 44 44
34 36 37 39 43 46 50 53 55 57 58 59 58 58 57 56 56 55 53 53 54 53 51 49 49 47 46 45 45 44 44 44 42 42 42 43 43 43 44 44 44 45 45
30 31 33 35 38 41 47 50 51 53 54 55 55 56 55 55 55 55 55 54 53 53 53 51 50 48 47 46 46 45 46 46 45 44 44 44 45 45 45 45 45 46 46
25 27 30 32 35 37 40 43 45 48 51 51 52 53 54 54 55 55 55 53 52 53 53 51 51 51 49 47 48 47 48 48 47 48 46 46 47 47 47 47 47 48 49
21 23 25 27 29 32 35 39 41 43 46 48 48 48 50 53 53 53 54 53 52 53 54 53 52 52 51 49 49 48 49 49 49 49 49 48 48 47 48 49 49 50 51
Wind_Direction
252 253 252 251 251 250 250 249 248 247 246 245 245 246 247 246 244 243 242 240 237 236 238 242 242 244 246 243 249 255 260 263 261 264 269 274 276 278 285 293 299 306 313
252 252 252 252 251 251 250 250 250 249 247 246 246 246 247 248 247 247 245 243 241 239 240 245 247 250 252 250 252 258 261 264 266 266 269 272 274 276 280 286 291 297 304
251 251 251 251 252 251 250 249 249 249 248 247 247 246 247 248 249 248 248 245 245 244 243 247 250 252 254 253 253 258 262 263 267 268 268 270 274 277 279 282 287 293 299
249 250 250 250 251 250 250 249 248 248 248 247 247 246 246 247 249 249 249 248 247 247 247 248 251 253 254 254 255 257 262 264 265 267 268 270 274 277 280 281 285 291 295
248 248 249 249 249 249 249 249 248 247 246 246 246 246 246 246 247 248 249 249 249 249 248 249 250 252 253 255 257 258 261 264 266 268 269 272 274 277 279 281 284 289 293
248 248 248 248 248 248 249 248 248 248 247 246 246 245 245 246 245 247 248 249 250 250 250 250 250 251 252 255 257 258 259 261 265 268 270 272 274 276 278 280 284 288 292
247 247 248 248 248 248 248 248 247 247 246 246 245 245 245 245 245 245 247 248 250 250 249 250 251 252 253 256 258 259 259 259 262 266 269 271 273 275 277 280 283 286 290
247 246 247 247 248 248 247 246 245 246 246 246 245 245 244 244 245 245 246 248 249 249 249 250 251 253 254 256 259 260 261 260 261 264 266 269 271 273 275 277 281 284 287
247 247 247 247 247 247 247 245 243 243 245 245 245 245 245 244 245 245 245 246 248 248 249 249 250 252 254 255 258 260 261 261 261 263 264 267 269 271 272 275 279 282 285
247 247 247 247 247 247 246 244 242 242 243 244 244 245 245 245 245 245 245 246 246 248 249 249 250 251 253 255 257 259 261 262 262 263 264 265 267 269 271 274 278 281 285
247 247 246 246 246 246 245 244 242 241 242 242 243 244 244 245 245 244 244 245 246 247 249 249 249 250 252 254 256 258 260 261 263 263 263 264 265 268 271 274 277 281 284
248 246 246 246 246 245 244 243 241 242 241 242 242 243 245 245 246 244 244 245 246 246 247 248 250 251 252 254 256 257 259 261 262 262 263 265 265 267 270 273 276 280 282
248 247 246 246 245 244 243 242 241 242 241 241 242 242 244 245 245 244 244 245 246 246 247 248 250 251 252 253 255 257 259 261 262 263 264 266 266 266 268 271 275 279 281
249 249 246 245 244 243 241 241 241 241 241 242 242 242 242 244 245 243 243 244 245 246 247 247 249 251 252 253 254 256 259 260 261 263 265 266 267 267 268 271 274 278 280
250 249 247 245 243 242 240 240 240 241 240 241 242 242 242 243 245 244 243 244 244 246 247 248 248 250 252 253 254 256 258 260 261 263 264 266 267 267 269 271 273 276 279
251 249 248 246 243 241 239 239 239 240 240 240 241 241 242 243 243 244 245 244 244 245 246 248 248 248 251 253 254 256 257 259 261 263 265 266 267 267 269 271 274 277 278
251 249 248 246 243 241 239 238 238 239 238 239 240 241 242 241 242 243 244 243 244 245 246 247 249 250 251 253 255 256 258 259 261 263 264 265 266 267 268 271 273 276 279
251 249 248 246 244 242 240 238 238 238 237 237 238 239 241 241 241 241 243 243 243 244 245 246 248 250 252 253 254 255 257 258 260 262 263 264 265 267 269 270 272 275 277
252 250 249 248 245 242 239 237 237 237 237 237 237 238 239 240 240 241 241 242 242 242 243 245 248 249 250 253 255 256 257 258 260 262 262 263 264 267 269 271 273 274 276
253 251 249 247 245 241 238 235 235 236 236 236 237 237 237 238 239 241 241 241 241 241 242 243 247 248 249 252 254 255 257 258 260 262 263 264 267 269 271 272 273 274 276
255 253 250 245 242 240 237 234 234 234 235 235 235 237 237 238 239 240 240 240 240 239 240 241 245 248 249 251 254 256 257 259 260 262 264 266 268 271 272 274 274 275 276
255 254 250 244 241 239 236 234 233 233 234 234 235 236 236 238 238 239 240 239 238 239 240 241 243 246 249 251 254 255 257 259 261 263 264 267 269 271 272 274 275 276 276
256 253 247 243 241 238 235 234 233 233 233 234 235 236 237 238 238 239 239 239 238 239 240 242 243 246 249 251 253 255 258 260 263 264 265 267 269 272 273 274 275 276 276
253 250 246 243 240 237 235 233 232 232 232 233 234 235 236 238 239 240 240 239 238 238 239 241 243 246 249 251 253 257 260 262 264 265 265 267 269 270 272 273 274 275 275
253 248 244 242 239 237 233 231 230 230 230 232 233 235 237 237 239 240 240 239 239 239 239 240 242 245 248 251 255 257 260 263 265 266 267 268 269 270 272 272 273 273 274
253 246 244 242 237 234 232 231 230 230 229 230 232 234 235 236 237 238 238 239 240 240 240 240 243 245 247 251 253 257 262 263 265 267 268 269 269 270 271 271 272 272 274
Height
5864 5866 5867 5868 5869 5871 5872 5873 5874 5875 5876 5877 5878 5879 5879 5880 5880 5880 5880 5880 5880 5880 5881 5881 5881 5881 5881 5881 5881 5881 5881 5881 5881 5881 5881 5880 5880 5880 5880 5879 5879 5878 5877
5860 5862 5863 5864 5866 5867 5868 5869 5871 5872 5873 5874 5875 5876 5877 5878 5878 5879 5879 5879 5879 5879 5879 5879 5879 5880 5880 5880 5880 5880 5880 5880 5880 5879 5879 5879 5879 5879 5879 5878 5878 5877 5876
5855 5857 5859 5860 5862 5863 5864 5866 5867 5868 5870 5871 5872 5873 5875 5876 5876 5877 5877 5877 5877 5877 5878 5878 5878 5878 5878 5878 5878 5878 5878 5878 5878 5878 5878 5878 5877 5877 5877 5877 5876 5875 5875
5850 5852 5853 5855 5857 5859 5860 5862 5863 5864 5866 5867 5869 5870 5871 5873 5873 5874 5875 5875 5875 5875 5876 5876 5876 5876 5877 5877 5877 5877 5877 5877 5877 5877 5876 5876 5876 5876 5875 5875 5874 5874 5873
5844 5846 5848 5850 5852 5854 5855 5857 5858 5860 5861 5863 5865 5866 5868 5869 5870 5871 5872 5873 5873 5873 5873 5874 5874 5874 5875 5875 5875 5875 5875 5875 5875 5875 5875 5874 5874 5874 5874 5873 5873 5872 5871
5838 5840 5842 5844 5846 5848 5850 5852 5854 5855 5857 5858 5860 5862 5863 5865 5866 5868 5869 5870 5870 5871 5871 5871 5872 5872 5872 5873 5873 5873 5873 5873 5873 5873 5873 5872 5872 5872 5871 5871 5870 5870 5869
5831 5833 5835 5837 5840 5842 5844 5846 5848 5850 5852 5853 5855 5857 5859 5860 5862 5864 5865 5866 5867 5868 5868 5869 5869 5870 5870 5870 5870 5870 5870 5870 5870 5870 5870 5870 5870 5869 5869 5869 5868 5868 5867
5823 5826 5828 5830 5833 5835 5837 5840 5842 5844 5846 5848 5850 5852 5853 5855 5857 5859 5861 5862 5863 5864 5865 5866 5866 5867 5867 5868 5868 5868 5868 5868 5868 5868 5867 5867 5867 5867 5867 5866 5866 5865 5864
5815 5817 5820 5823 5825 5828 5830 5832 5835 5838 5840 5842 5844 5846 5848 5850 5852 5854 5856 5857 5859 5860 5861 5862 5863 5863 5864 5864 5864 5865 5865 5865 5865 5865 5864 5864 5864 5864 5864 5863 5863 5862 5861
5806 5808 5811 5814 5817 5819 5822 5824 5828 5831 5833 5836 5838 5841 5843 5845 5847 5848 5850 5852 5854 5855 5856 5857 5858 5859 5860 5861 5861 5861 5861 5861 5861 5861 5861 5861 5861 5861 5860 5860 5859 5859 5858
5796 5799 5802 5805 5808 5810 5813 5816 5820 5823 5826 5829 5831 5834 5836 5839 5841 5843 5845 5847 5849 5850 5851 5853 5854 5855 5856 5856 5857 5857 5857 5858 5858 5857 5858 5857 5857 5857 5857 5856 5856 5855 5854
5785 5788 5791 5795 5798 5801 5804 5807 5811 5815 5818 5821 5824 5827 5830 5832 5835 5837 5839 5841 5843 5844 5846 5847 5849 5850 5851 5852 5852 5853 5853 5853 5853 5853 5854 5854 5853 5853 5853 5853 5852 5851 5850
5773 5776 5780 5783 5787 5791 5794 5798 5802 5806 5810 5813 5817 5820 5822 5825 5828 5830 5833 5835 5837 5838 5840 5842 5843 5844 5846 5847 5847 5848 5848 5849 5849 5849 5849 5849 5849 5849 5849 5848 5848 5847 5846
5760 5764 5767 5771 5775 5779 5783 5788 5792 5796 5801 5805 5808 5812 5815 5817 5820 5823 5826 5829 5830 5832 5834 5836 5837 5839 5840 5841 5842 5843 5843 5844 5844 5844 5845 5844 5844 5844 5844 5843 5843 5842 5841
5747 5750 5754 5758 5762 5767 5772 5777 5782 5786 5791 5795 5799 5803 5806 5810 5813 5816 5819 5821 5824 5826 5828 5830 5831 5833 5834 5835 5836 5837 5838 5838 5839 5839 5839 5839 5839 5839 5838 5838 5837 5837 5836
5734 5737 5740 5744 5749 5754 5760 5765 5771 5776 5780 5785 5789 5793 5797 5801 5804 5808 5811 5814 5816 5819 5821 5823 5824 5826 5827 5828 5830 5831 5832 5832 5833 5833 5833 5833 5833 5833 5833 5832 5832 5831 5830
5720 5723 5727 5730 5735 5740 5746 5752 5758 5764 5769 5774 5779 5783 5787 5791 5795 5799 5802 5805 5809 5811 5813 5815 5817 5819 5820 5822 5823 5824 5825 5826 5826 5826 5826 5827 5827 5826 5826 5826 5825 5825 5824
5706 5709 5713 5717 5721 5727 5733 5739 5744 5751 5757 5762 5768 5772 5777 5781 5785 5789 5793 5797 5800 5803 5805 5808 5810 5812 5814 5815 5816 5817 5818 5819 5819 5819 5820 5820 5820 5820 5819 5819 5819 5818 5817
5692 5696 5699 5703 5707 5712 5718 5724 5731 5737 5744 5750 5755 5761 5766 5770 5775 5779 5783 5787 5790 5794 5797 5799 5802 5804 5806 5807 5808 5810 5810 5811 5811 5812 5812 5812 5813 5812 5812 5812 5811 5810 5809
5680 5682 5685 5689 5693 5697 5703 5710 5716 5723 5730 5736 5742 5748 5754 5759 5764 5768 5773 5777 5781 5784 5788 5791 5793 5795 5797 5799 5800 5801 5802 5803 5804 5804 5805 5805 5805 5805 5804 5803 5803 5802 5801
5668 5669 5671 5674 5679 5683 5689 5696 5703 5710 5716 5723 5729 5735 5742 5747 5752 5757 5762 5766 5770 5774 5778 5782 5784 5786 5788 5790 5792 5793 5794 5795 5795 5796 5797 5797 5797 5796 5796 5795 5794 5793 5792
5656 5657 5659 5662 5666 5671 5677 5683 5690 5697 5703 5710 5717 5723 5729 5735 5741 5746 5751 5755 5760 5764 5768 5772 5775 5777 5779 5781 5783 5783 5785 5786 5787 5788 5788 5789 5788 5787 5787 5785 5784 5783 5781
5646 5647 5648 5650 5655 5659 5665 5671 5677 5684 5691 5698 5705 5711 5717 5723 5729 5734 5739 5744 5748 5753 5758 5762 5765 5767 5770 5772 5773 5774 5775 5777 5778 5779 5779 5779 5778 5777 5776 5775 5774 5772 5770
5637 5637 5639 5641 5644 5648 5653 5660 5666 5673 5680 5687 5693 5699 5705 5711 5717 5722 5727 5732 5737 5742 5746 5751 5754 5757 5759 5761 5763 5764 5766 5767 5768 5769 5769 5768 5767 5766 5765 5764 5762 5760 5759
5629 5629 5630 5632 5635 5639 5643 5649 5655 5662 5669 5676 5682 5688 5693 5698 5704 5710 5715 5720 5725 5730 5735 5739 5742 5746 5748 5751 5752 5754 5755 5756 5756 5756 5757 5758 5756 5755 5754 5752 5750 5749 5747
5623 5622 5623 5625 5627 5631 5635 5641 5646 5652 5658 5665 5671 5676 5682 5687 5692 5697 5702 5707 5712 5717 5722 5727 5730 5734 5737 5739 5741 5742 5743 5744 5744 5744 5744 5745 5744 5744 5742 5740 5737 5736 5734